Saltar para o conteúdo principal

Pico / Cabeço do Teicho (DROTRH)

ID 11217625 · 38.4890, -28.3534 mapa

Última leitura · 2026-05-09 17:00 (Europe/Lisbon)

Temperatura
7.7 °C
Humidade
99 %
Pressão
Precipitação
0.0 mm
Radiação
698 W/m²
Velocidade do vento
14.0 km/h
Direcção do vento
W · Oeste

Histórico de 24 horas

Hora (Europe/Lisbon) Temperatura Humidade Pressão Chuva Vento Direcção
2026-05-09 17:00 7.7 °C 99 % 0.0 mm 14.0 km/h W
2026-05-09 16:00 7.4 °C 99 % 2.3 mm 13.0 km/h SW
2026-05-09 15:00 7.0 °C 97 % 0.3 mm 10.1 km/h W
2026-05-09 14:00 6.6 °C 94 % 0.0 mm 8.3 km/h W
2026-05-09 13:00 6.7 °C 91 % 0.0 mm 10.4 km/h W
2026-05-09 12:00 6.6 °C 85 % 0.1 mm 11.9 km/h NW
2026-05-09 11:00 6.4 °C 87 % 0.0 mm 14.0 km/h W
2026-05-09 10:00 5.4 °C 96 % 0.0 mm 10.8 km/h W
2026-05-09 09:00 5.0 °C 99 % 0.0 mm 10.4 km/h W
2026-05-09 08:00 5.0 °C 99 % 0.0 mm 13.0 km/h W
2026-05-09 07:00 5.3 °C 99 % 0.5 mm 8.3 km/h W
2026-05-09 06:00 5.5 °C 99 % 0.2 mm 8.3 km/h SW
2026-05-09 05:00 5.2 °C 99 % 0.5 mm 10.1 km/h W
2026-05-09 04:00 4.3 °C 99 % 0.0 mm 7.6 km/h SW
2026-05-09 03:00 5.1 °C 99 % 0.0 mm 9.7 km/h W
2026-05-09 02:00 5.7 °C 99 % 0.0 mm 9.4 km/h W
2026-05-09 01:00 6.8 °C 99 % 0.6 mm 14.0 km/h SW
2026-05-09 00:00 7.1 °C 99 % 0.8 mm 14.4 km/h SW
2026-05-08 23:00 7.4 °C 99 % 0.6 mm 13.3 km/h W
2026-05-08 22:00 7.8 °C 99 % 0.1 mm 10.4 km/h W
2026-05-08 21:00 8.1 °C 99 % 0.0 mm 10.8 km/h W
2026-05-08 20:00 8.1 °C 99 % 0.0 mm 12.6 km/h W